TimeCDT,TemperatureF,Dew PointF,Humidity,Sea Level PressureIn,VisibilityMPH,Wind Direction,Wind SpeedMPH,Gust SpeedMPH,PrecipitationIn,Events,Conditions,WindDirDegrees,DateUTC
12:15 AM,17.6,12.2,79,30.12,10.0,North,5.8,-,0.00,,Mostly Cloudy,360,2013-03-23 05:15:00
12:35 AM,17.6,12.2,79,30.13,10.0,North,4.6,-,0.00,,Scattered Clouds,360,2013-03-23 05:35:00
12:55 AM,17.6,12.2,79,30.13,10.0,NNW,6.9,-,0.00,,Overcast,340,2013-03-23 05:55:00
1:15 AM,17.6,12.2,79,30.12,10.0,North,8.1,-,0.00,,Overcast,350,2013-03-23 06:15:00
1:35 AM,17.6,12.2,79,30.13,10.0,NNW,5.8,-,0.00,,Overcast,330,2013-03-23 06:35:00
1:55 AM,17.6,12.2,79,30.13,10.0,NW,4.6,-,0.00,,Overcast,320,2013-03-23 06:55:00
2:15 AM,17.6,12.2,79,30.13,10.0,NNW,4.6,-,0.00,,Overcast,340,2013-03-23 07:15:00
2:35 AM,17.6,12.2,79,30.13,10.0,NNW,5.8,-,0.00,,Overcast,340,2013-03-23 07:35:00
3:15 AM,17.6,12.2,79,30.14,10.0,NW,3.5,-,0.00,,Overcast,320,2013-03-23 08:15:00
3:35 AM,17.6,12.2,79,30.14,10.0,NW,4.6,-,0.00,,Overcast,320,2013-03-23 08:35:00
3:55 AM,17.6,12.2,79,30.13,10.0,NNW,5.8,-,0.00,,Overcast,330,2013-03-23 08:55:00
4:15 AM,15.8,12.2,86,30.14,10.0,NW,4.6,-,0.00,,Overcast,310,2013-03-23 09:15:00
4:35 AM,15.8,12.2,86,30.14,10.0,WNW,3.5,-,0.00,,Overcast,300,2013-03-23 09:35:00
4:55 AM,14.0,10.4,86,30.14,10.0,West,3.5,-,0.00,,Overcast,280,2013-03-23 09:55:00
5:15 AM,14.0,10.4,86,30.13,10.0,NW,5.8,-,0.00,,Overcast,320,2013-03-23 10:15:00
5:35 AM,14.0,10.4,86,30.14,10.0,NW,5.8,-,0.00,,Mostly Cloudy,320,2013-03-23 10:35:00
5:55 AM,14.0,10.4,86,30.15,10.0,NW,6.9,-,0.00,,Scattered Clouds,320,2013-03-23 10:55:00
6:15 AM,14.0,10.4,86,30.15,10.0,NNW,5.8,-,0.00,,Mostly Cloudy,330,2013-03-23 11:15:00
6:35 AM,14.0,12.2,93,30.14,10.0,NNW,5.8,-,0.00,,Overcast,330,2013-03-23 11:35:00
6:55 AM,14.0,12.2,93,30.14,10.0,NNW,5.8,-,0.00,,Overcast,340,2013-03-23 11:55:00
7:15 AM,15.8,12.2,86,30.15,10.0,NW,5.8,-,0.00,,Overcast,320,2013-03-23 12:15:00
7:35 AM,15.8,12.2,86,30.15,10.0,NNW,5.8,-,0.00,,Overcast,340,2013-03-23 12:35:00
7:55 AM,15.8,12.2,86,30.16,10.0,NW,5.8,-,0.00,,Overcast,320,2013-03-23 12:55:00
8:15 AM,17.6,12.2,79,30.16,10.0,NW,5.8,-,0.00,,Overcast,320,2013-03-23 13:15:00
8:35 AM,17.6,14.0,86,30.17,10.0,NW,4.6,-,0.00,,Overcast,310,2013-03-23 13:35:00
8:55 AM,17.6,14.0,86,30.18,10.0,WNW,4.6,-,0.00,,Mostly Cloudy,290,2013-03-23 13:55:00
9:15 AM,17.6,14.0,86,30.18,10.0,North,3.5,-,0.00,,Mostly Cloudy,350,2013-03-23 14:15:00
9:35 AM,19.4,15.8,86,30.18,10.0,North,3.5,-,0.00,,Scattered Clouds,360,2013-03-23 14:35:00
9:55 AM,19.4,15.8,86,30.18,10.0,NNW,3.5,-,0.00,,Scattered Clouds,340,2013-03-23 14:55:00
10:15 AM,19.4,17.6,93,30.18,10.0,NNW,5.8,-,0.00,,Scattered Clouds,330,2013-03-23 15:15:00
10:35 AM,21.2,17.6,86,30.18,10.0,North,4.6,-,0.00,,Mostly Cloudy,350,2013-03-23 15:35:00
10:55 AM,21.2,17.6,86,30.18,9.0,NNW,5.8,-,0.00,,Scattered Clouds,330,2013-03-23 15:55:00
11:15 AM,21.2,17.6,86,30.18,10.0,NNW,4.6,-,0.00,,Clear,330,2013-03-23 16:15:00
11:35 AM,23.0,19.4,86,30.18,10.0,NNW,5.8,-,0.00,,Clear,340,2013-03-23 16:35:00
11:55 AM,23.0,19.4,86,30.19,10.0,NNW,4.6,-,0.00,,Clear,340,2013-03-23 16:55:00
12:15 PM,23.0,19.4,86,30.18,10.0,NNW,5.8,-,0.00,,Clear,340,2013-03-23 17:15:00
12:35 PM,24.8,19.4,80,30.18,10.0,NNW,5.8,-,0.00,,Clear,340,2013-03-23 17:35:00
12:55 PM,26.6,19.4,74,30.17,10.0,NNW,6.9,-,0.00,,Clear,330,2013-03-23 17:55:00
1:15 PM,26.6,21.2,80,30.17,10.0,NW,6.9,-,0.00,,Clear,320,2013-03-23 18:15:00
1:35 PM,26.6,21.2,80,30.17,10.0,NNW,8.1,-,0.00,,Clear,330,2013-03-23 18:35:00
1:55 PM,26.6,21.2,80,30.17,10.0,NW,6.9,-,0.00,,Clear,320,2013-03-23 18:55:00
2:15 PM,26.6,21.2,80,30.17,10.0,NNW,5.8,-,0.00,,Clear,340,2013-03-23 19:15:00
2:35 PM,28.4,21.2,74,30.17,10.0,WNW,6.9,-,0.00,,Scattered Clouds,290,2013-03-23 19:35:00
2:55 PM,28.4,21.2,74,30.16,10.0,West,5.8,-,0.00,,Mostly Cloudy,270,2013-03-23 19:55:00
3:15 PM,28.4,21.2,74,30.16,10.0,NW,4.6,-,0.00,,Mostly Cloudy,310,2013-03-23 20:15:00
3:35 PM,28.4,21.2,74,30.16,10.0,NW,5.8,-,0.00,,Overcast,320,2013-03-23 20:35:00
3:55 PM,28.4,21.2,74,30.16,10.0,West,6.9,-,0.00,,Overcast,270,2013-03-23 20:55:00
4:15 PM,28.4,21.2,74,30.16,10.0,West,5.8,-,0.00,,Overcast,270,2013-03-23 21:15:00
4:35 PM,28.4,21.2,74,30.16,10.0,WNW,5.8,-,0.00,,Mostly Cloudy,290,2013-03-23 21:35:00
4:55 PM,28.4,21.2,74,30.17,10.0,WNW,6.9,-,0.00,,Scattered Clouds,290,2013-03-23 21:55:00
5:15 PM,28.4,21.2,74,30.16,10.0,WNW,8.1,-,0.00,,Partly Cloudy,290,2013-03-23 22:15:00
5:35 PM,28.4,21.2,74,30.17,10.0,West,8.1,-,0.00,,Partly Cloudy,270,2013-03-23 22:35:00
5:55 PM,26.6,21.2,80,30.17,10.0,WNW,10.4,-,0.00,,Partly Cloudy,290,2013-03-23 22:55:00
6:15 PM,26.6,21.2,80,30.17,9.0,WNW,12.7,-,0.00,,Clear,290,2013-03-23 23:15:00
6:35 PM,26.6,21.2,80,30.18,10.0,WNW,11.5,-,0.00,,Clear,290,2013-03-23 23:35:00
6:55 PM,26.6,21.2,80,30.18,10.0,WNW,13.8,-,0.00,,Clear,290,2013-03-23 23:55:00
7:15 PM,26.6,21.2,80,30.17,10.0,WNW,11.5,-,0.00,,Clear,290,2013-03-24 00:15:00
7:35 PM,26.6,21.2,80,30.18,10.0,WNW,8.1,-,0.00,,Clear,300,2013-03-24 00:35:00
7:55 PM,24.8,21.2,86,30.19,10.0,NW,8.1,-,0.00,,Clear,310,2013-03-24 00:55:00
8:15 PM,23.0,21.2,93,30.19,9.0,WNW,8.1,-,0.00,,Clear,300,2013-03-24 01:15:00
8:35 PM,23.0,19.4,86,30.19,10.0,WNW,8.1,-,0.00,,Clear,300,2013-03-24 01:35:00
8:55 PM,23.0,19.4,86,30.19,10.0,WNW,8.1,-,0.00,,Mostly Cloudy,300,2013-03-24 01:55:00
9:15 PM,23.0,19.4,86,30.19,10.0,WNW,8.1,-,0.00,,Mostly Cloudy,290,2013-03-24 02:15:00
9:35 PM,23.0,19.4,86,30.20,8.0,WNW,9.2,-,0.00,,Mostly Cloudy,300,2013-03-24 02:35:00
9:55 PM,23.0,19.4,86,30.20,10.0,NW,10.4,-,0.00,,Overcast,310,2013-03-24 02:55:00
10:15 PM,23.0,19.4,86,30.19,10.0,NW,11.5,-,0.00,,Overcast,320,2013-03-24 03:15:00
10:35 PM,21.2,17.6,86,30.19,10.0,NW,10.4,-,0.00,,Scattered Clouds,320,2013-03-24 03:35:00
10:55 PM,21.2,17.6,86,30.19,10.0,NW,10.4,-,0.00,,Clear,320,2013-03-24 03:55:00
11:15 PM,19.4,15.8,86,30.19,10.0,NW,10.4,-,0.00,,Clear,320,2013-03-24 04:15:00
11:35 PM,19.4,15.8,86,30.19,10.0,NW,9.2,-,0.00,,Clear,310,2013-03-24 04:35:00
11:55 PM,19.4,15.8,86,30.19,10.0,WNW,9.2,-,0.00,,Clear,300,2013-03-24 04:55:00